Terminal Aerodrome Forecast
Issued by NWS

Home | Current Version | Previous Version | Graphics & Text | Print | Product List | Glossary On
Versions: 1 2 3 4 5 6 7 8 9 10 11 12 13 14 15 16 17 18
000
FTUS43 KABR 222300
TAFMBG
TAF
KMBG 222333Z 2300/2324 13023G34KT P6SM BKN120
     FM231500 16023G34KT P6SM SCT040 BKN200
     FM232200 29022G30KT P6SM SCT040=

USA.gov is the U.S. government's official web portal to all federal, state and local government web resources and services.